Weather in Uhroidy

Ukraine / Sumi District     50°51′34″N   35°16′12″E
temp.,
°C
wind,
m/s
gust,
m/s
humid.,
%
clouds,
%
prec.,
mm/h
press.,
hPa
HPBL,
m
27 october, wed
wed2700:00+2ssw411555 0.0 1029200
03:00+1ssw4105535 0.0 1028185
06:000ssw512535 0.0 1027226
09:00+2ssw513530 0.0 1026343
12:00+8sw710560 0.0 1025745
15:00+10wsw696047 0.0 10231047
18:00+9wsw486434 0.0 1023476
21:00+7wsw377395 0.0 1023255
28 october, thu
thu2800:00+5w368234 0.0 1024103
03:00+4w3485100 0.0 102380
06:00+4wsw3790100 0.0 1022132
09:00+6sw51185100 0.3 1022315
12:00+7sw61380100 0.7 1021460
15:00+9w51079100 0.8 1020592
18:00+8wnw499193 0.2 1020388
21:00+8nw4991100 0.2 1022460
29 october, fri
fri2900:00+7wnw369565 0.0 1023114
03:00+6n37955 0.0 1024175
06:00+4n36915 0.0 1026106
09:00+5nne36824 0.0 1028169
12:00+10ene34672 0.0 1029685
15:00+12e23584 0.0 1029954
18:00+8e22720 0.0 103015
21:00+6se34860 0.0 103161
30 october, sat
sat3000:00+5se34900 0.0 103270
03:00+4se34910 0.0 103255
06:00+4sse33930 0.0 103344
09:00+5sse25891 0.0 1033127
12:00+10sse34650 0.0 1033481
15:00+12sse34550 0.0 1032759
18:00+8se33670 0.0 103234
21:00+7sse34690 0.0 103347
31 october, sun
sun3100:00+6sse34730 0.0 103340
03:00+5sse33760 0.0 103333
05:00+4se33830 0.0 103234
08:00+5se36790 0.0 1032157
11:00+10se46590 0.0 1031533
14:00+12se45480 0.0 1028704
17:00+8ese35620 0.0 102882
20:00+7ese49720 0.0 1028163